COSMOS 1275 DEB, 12742

Orbit data source: Space-Track

COSMOS 1275 DEB, 12742 is space debris in LEO originally from a launch on Thu, 04 Jun 1981 UTC launched from the Plesetsk Missile And Space Complex (PKMTR). Debris objects in space refer to the collection of defunct objects orbiting the Earth. Examples of debris include non-operational satellites, rocket bodies, and fragments generated from explosions, collisions, or faulty payload assembly.

Loading next visibility...
Identifier
12742, 1981-053CK
Orbit
LEO
Country
Flag of CISCIS
Related business
Manufacturer
Unknown
Mission
Spacecraft
Bus & Motor
Unknown
Mass
Unknown
Launch date (UTC)
1981-06-04 (45 years ago)
Launch vehicle
Unknown
Launch site
Plesetsk Missile And Space Complex (PKMTR)
Object type
Payload
Rocket body
Debris
Shape & HBR
Unknown shape, 0.3 m
Radar Cross Section
Medium (>0.1 m² and <1 m²)

Expand to show TLE details & history
Last TLE update: 2 days ago

TLE from 2 days ago
0 COSMOS 1275 DEB
1 12742U 81053CK  26171.28865193  .00000089  00000-0  78974-4 0  9998
2 12742  82.9484 271.6334 0045831 284.5308 131.1039 13.73867146249267
Epoch: 2026-06-20T06:55Z
TLE epoch observation values (Epoch: 2026-06-20T06:55:39.526Z)
Latitude
55.48747°
Longitude
-90.47702°
Altitude
1,017.21 km
Speed
7.337 km/s
True Right ascension
18h 47m 46s
True Declination
55° 19' 57"
Sunlit
Object was in daylight at epoch
Visualization orbit readout
Latitude
Unknown
Longitude
Unknown
Altitude
Unknown
Speed
Unknown
Apparent Right ascension
Unknown
Apparent Declination
Unknown
Sunlit
N/A
Visualization observer readout
Local Sidereal Time
22:44:26
Azimuth
Unknown
Elevation
Unknown
Doppler factor
Unknown
Orbital elements
Apogee altitude
1,016.606 km
Perigee altitude
949.134 km
Semi-major axis
7,361.007 km
Eccentricity
0.00458
Inclination
82.9484°
RAAN
271.6334°
Arg. of periapsis
284.5308°
True anomaly
131.49815°
Mean anomaly
131.1039°
Eccentric anomaly
131.30117°
Mean motion
3.43667 °/min
Orbital period
104.75 mins
BSTAR
0.000078974
Loading maneuver chart data...
Computing Atmospheric mass density...

Documentation

Showing up to 5 results
|